This demonstration page uses our WeatherBlox Daily Observations layout. Learn more.

Left ArrowRight Arrow

53.62937, 11.41316

Hourly Observations for February 26, 2019

Temp ( °F °C ) Dew Point ( °F °C ) Humidity (%) Winds ( mph kmh ) Pressure ( in mb ) Visibility ( mi km ) Precip ( " mm )
6:50 am 06:50 Mostly Clear with Mist and Fog 36 2 32 0 87 87 SW 7 11 30.51 1033 2 3 N/A
7:20 am 07:20 Partly Cloudy with Mist and Fog 34 1 32 0 93 93 SW 5 7 30.54 1034 2 3 N/A
7:50 am 07:50 Partly Cloudy with Mist and Fog 36 2 32 0 87 87 SW 5 7 30.54 1034 2 3 N/A
8:20 am 08:20 Partly Cloudy with Mist and Fog 36 2 32 0 87 87 SW 5 7 30.54 1034 2 4 N/A
8:50 am 08:50 Partly Cloudy with Mist and Fog 37 3 32 0 81 81 SSW 2 4 30.54 1034 3 4 N/A
9:20 am 09:20 Mostly Sunny 41 5 34 1 76 76 SW 5 7 30.54 1034 3 5 N/A
9:50 am 09:50 Mostly Sunny 43 6 34 1 71 71 SW 3 6 30.54 1034 4 6 N/A
10:20 am 10:20 Mostly Sunny 45 7 34 1 66 66 WSW 3 6 30.54 1034 4 7 N/A
10:50 am 10:50 Mostly Sunny 46 8 34 1 62 62 WSW 5 7 30.54 1034 5 8 N/A
11:20 am 11:20 Mostly Sunny 48 9 36 2 62 62 SW 5 7 30.54 1034 5 8 N/A
11:50 am 11:50 Mostly Sunny 52 11 36 2 54 54 VRB 2 4 30.53 1034 7 11 N/A
12:20 pm 12:20 Mostly Sunny 52 11 36 2 54 54 SSW 5 7 30.53 1034 7 11 N/A
12:50 pm 12:50 Mostly Sunny 55 13 37 3 51 51 WSW 5 7 30.53 1034 7 11 N/A
1:20 pm 13:20 Mostly Sunny 55 13 39 4 55 55 SW 7 11 30.50 1033 7 11 N/A
1:50 pm 13:50 Mostly Sunny 57 14 39 4 51 51 VRB 5 7 30.50 1033 7 11 N/A
2:20 pm 14:20 Mostly Sunny 57 14 39 4 51 51 WSW 7 11 30.50 1033 7 11 N/A
2:50 pm 14:50 Mostly Sunny 57 14 37 3 48 48 SW 8 13 30.50 1033 7 11 N/A
3:20 pm 15:20 Mostly Sunny 57 14 34 1 41 41 WSW 7 11 30.48 1032 7 11 N/A
3:50 pm 15:50 Mostly Sunny 57 14 34 1 41 41 WSW 6 9 30.48 1032 7 11 N/A
4:20 pm 16:20 Mostly Sunny 57 14 34 1 41 41 WSW 5 7 30.48 1032 7 11 N/A
4:50 pm 16:50 Mostly Sunny 57 14 36 2 44 44 VRB 3 6 30.48 1032 7 11 N/A
5:20 pm 17:20 Mostly Sunny 55 13 34 1 44 44 WSW 3 6 30.48 1032 7 11 N/A
5:50 pm 17:50 Mostly Clear 54 12 36 2 51 51 WSW 3 6 30.48 1032 7 11 N/A
6:20 pm 18:20 Mostly Clear 50 10 36 2 58 58 WSW 2 4 30.51 1033 7 11 N/A
6:50 pm 18:50 Mostly Clear 48 9 36 2 62 62 WSW 3 6 30.51 1033 7 11 N/A
7:20 pm 19:20 Mostly Clear 46 8 36 2 66 66 WSW 3 6 30.51 1033 7 11 N/A
7:50 pm 19:50 Mostly Clear 45 7 36 2 71 71 WSW 3 6 30.51 1033 7 11 N/A
8:20 pm 20:20 Mostly Clear 45 7 37 3 76 76 SW 6 9 30.48 1032 6 9 N/A
8:50 pm 20:50 Mostly Clear 45 7 32 0 61 61 SW 5 7 30.48 1032 5 8 N/A
9:20 pm 21:20 Mostly Clear 43 6 37 3 81 81 SW 3 6 30.48 1032 5 8 N/A

Powered by AerisWeather